TimeEDT,TemperatureF,Dew PointF,Humidity,Sea Level PressureIn,VisibilityMPH,Wind Direction,Wind SpeedMPH,Gust SpeedMPH,PrecipitationIn,Events,Conditions,WindDirDegrees,DateUTC
12:53 AM,75.0,66.0,73,30.12,10.0,SE,3.5,-,N/A,,Clear,140,2013-06-16 04:53:00
1:53 AM,73.9,66.0,76,30.12,10.0,Calm,Calm,-,N/A,,Clear,0,2013-06-16 05:53:00
2:53 AM,73.0,66.0,79,30.12,10.0,Calm,Calm,-,N/A,,Clear,0,2013-06-16 06:53:00
3:53 AM,72.0,66.0,81,30.11,10.0,Calm,Calm,-,N/A,,Clear,0,2013-06-16 07:53:00
4:53 AM,71.1,64.9,81,30.12,10.0,Calm,Calm,-,N/A,,Clear,0,2013-06-16 08:53:00
5:53 AM,69.1,64.0,84,30.13,10.0,Calm,Calm,-,N/A,,Clear,0,2013-06-16 09:53:00
6:53 AM,71.1,66.0,84,30.13,10.0,Calm,Calm,-,N/A,,Clear,0,2013-06-16 10:53:00
7:53 AM,75.0,68.0,79,30.14,10.0,SE,3.5,-,N/A,,Clear,140,2013-06-16 11:53:00
8:53 AM,80.1,69.1,69,30.15,10.0,SE,4.6,-,N/A,,Clear,130,2013-06-16 12:53:00
9:53 AM,84.0,69.1,61,30.16,10.0,SE,6.9,-,N/A,,Clear,130,2013-06-16 13:53:00
10:53 AM,88.0,71.1,57,30.14,10.0,ESE,8.1,-,N/A,,Clear,120,2013-06-16 14:53:00
11:53 AM,88.0,70.0,55,30.14,10.0,South,3.5,-,N/A,,Scattered Clouds,190,2013-06-16 15:53:00
12:53 PM,91.0,69.1,48,30.12,10.0,Variable,6.9,-,N/A,,Scattered Clouds,0,2013-06-16 16:53:00
1:53 PM,91.0,66.9,45,30.11,10.0,East,3.5,-,N/A,,Mostly Cloudy,90,2013-06-16 17:53:00
2:53 PM,93.9,66.0,40,30.09,10.0,ESE,3.5,-,N/A,,Scattered Clouds,120,2013-06-16 18:53:00
3:53 PM,91.9,66.0,42,30.07,10.0,Variable,5.8,-,N/A,,Mostly Cloudy,0,2013-06-16 19:53:00
4:53 PM,95.0,64.9,37,30.05,10.0,Variable,3.5,-,N/A,,Clear,0,2013-06-16 20:53:00
5:53 PM,93.9,66.0,40,30.05,10.0,South,6.9,-,N/A,,Partly Cloudy,190,2013-06-16 21:53:00
6:53 PM,91.9,66.9,44,30.06,10.0,SSE,5.8,-,N/A,,Partly Cloudy,160,2013-06-16 22:53:00
7:53 PM,90.0,68.0,48,30.06,10.0,SSE,5.8,-,N/A,,Scattered Clouds,150,2013-06-16 23:53:00
8:53 PM,84.0,70.0,63,30.06,10.0,South,3.5,-,N/A,,Clear,190,2013-06-17 00:53:00
9:53 PM,84.0,70.0,63,30.08,10.0,SE,6.9,-,N/A,,Scattered Clouds,130,2013-06-17 01:53:00
10:53 PM,82.9,70.0,65,30.10,10.0,SSE,6.9,-,N/A,,Overcast,150,2013-06-17 02:53:00
11:53 PM,80.1,72.0,76,30.10,10.0,South,11.5,-,0.00,Rain,Light Rain,170,2013-06-17 03:53:00